Location: Unspecified
(37.6100°N, 2.7800°W)
Time: 08:16:19
(UTC+00:00)

OTV 5 (USA 277) - Visible Passes

Search period start: 19 April 2019 00:00
Search period end: 29 April 2019 00:00
Orbit: 310 x 325 km, 54.5° (Epoch: 16 April)

Date Brightness Start Highest point End Pass type
(mag) Time Alt. Az. Time Alt. Az. Time Alt. Az.
20 Apr ? 03:51:43 10° N 03:52:43 11° NNE 03:53:43 10° NE visible
21 Apr ? 04:05:24 10° NNW 04:07:42 25° NE 04:09:59 10° E visible
22 Apr ? 04:19:51 10° NW 04:22:31 80° NE 04:25:10 10° SE visible
22 Apr ? 20:38:21 10° SW 20:39:15 19° SW 20:39:15 19° SW visible
23 Apr ? 03:03:50 14° ENE 03:03:50 14° ENE 03:04:39 10° ENE visible
23 Apr ? 04:34:51 10° WNW 04:37:10 27° SW 04:39:29 10° S visible
23 Apr ? 19:19:47 10° S 19:21:42 17° SE 19:23:37 10° E visible
23 Apr ? 20:53:36 10° W 20:55:54 24° NW 20:56:30 22° NNW visible
24 Apr ? 19:33:37 10° SSW 19:36:18 57° SE 19:38:59 10° NE visible
24 Apr ? 21:09:56 10° NW 21:10:53 11° NNW 21:11:51 10° N visible
25 Apr ? 19:48:27 10° WSW 19:51:03 39° NW 19:53:39 10° NNE visible
26 Apr ? 20:04:09 10° WNW 20:05:58 16° NW 20:07:47 10° N visible
